Location: Regensburg
(48.4565°N, 10.3217°E)
Time: 03:51:12
(UTC+01:00)

ISS - Pass Details

Date: 05 January 2018
Orbit: 402 x 407 km, 51.6° (Epoch: 21 January)

Event Time Altitude Azimuth Distance (km) Brightness Sun altitude
Exits shadow 06:03:18 47° 16° (NNE) 547 -3.2 -20.1°
Drops below altitude 10° 06:06:10 10° 69° (ENE) 1,471 -0.2 -19.6°
Sets 06:08:18 0° 75° (ENE) 2,334 1.1 -19.3°
